Theta_e
311 309 309 310 311 312 312 312 313 313 313 313 312 313 313 314 314 317 319 319 321 324 323 326 328 328 331 333 333 334 336 336 338 345 346 347 350 349 346 340 338 338 343 348
309 309 311 311 311 311 311 311 311 312 313 312 312 313 313 313 313 314 315 319 320 322 323 325 325 328 331 332 336 335 334 335 335 335 334 335 340 341 338 335 332 339 343 348
309 310 311 310 309 310 309 310 311 311 312 312 311 312 312 312 313 314 315 316 320 320 321 322 323 327 329 336 338 335 333 332 333 333 331 332 337 337 336 340 339 339 344 348
309 309 311 310 310 312 313 313 313 313 313 312 312 312 311 312 313 313 314 315 316 317 319 321 321 323 332 336 332 331 331 331 332 331 331 331 336 340 337 335 337 346 347 349
309 309 310 311 314 314 314 314 313 313 312 312 312 312 312 312 313 312 312 313 314 317 317 319 320 323 329 334 335 332 332 334 332 331 331 331 335 336 339 339 346 349 349 348
308 310 312 313 313 313 313 313 312 313 312 313 311 313 313 312 312 313 313 313 314 315 319 318 319 323 326 329 329 331 334 333 331 331 332 335 338 341 342 346 350 349 349 348
310 309 313 314 314 313 312 311 313 313 315 315 312 311 312 312 312 313 314 314 314 314 314 318 319 319 320 322 325 327 328 331 332 332 334 336 339 339 342 348 350 349 347 346
310 310 309 315 313 311 312 315 318 319 315 313 314 316 312 311 312 317 317 315 314 314 314 316 318 320 320 322 323 325 328 330 331 333 338 339 338 339 341 348 348 347 346 345
310 311 311 310 310 310 311 314 311 317 316 320 317 313 313 316 317 317 317 316 316 315 316 318 318 318 321 323 325 326 325 330 334 338 340 342 342 340 342 350 348 348 346 344
313 314 312 311 311 311 310 311 313 314 318 318 313 312 316 318 318 316 316 316 316 318 319 317 321 321 324 327 330 330 327 332 339 340 342 344 345 342 349 349 348 345 342 342
311 313 314 312 311 310 311 312 317 317 319 319 318 315 318 317 316 315 314 314 315 319 319 320 320 328 341 341 332 333 334 334 333 333 337 342 347 352 350 348 344 343 345 346
314 315 314 313 311 311 315 316 315 319 318 320 319 314 317 314 314 314 314 314 315 316 319 317 318 334 337 340 341 339 343 346 346 347 348 349 349 353 351 348 347 346 348 347
315 313 315 312 309 313 314 313 312 313 314 315 316 314 316 316 316 315 315 314 315 318 318 316 316 334 336 338 341 347 347 348 349 349 350 351 351 350 348 349 349 346 345 342
313 314 314 315 314 313 313 312 312 312 313 313 312 313 313 317 316 315 316 316 316 317 318 317 324 326 333 337 339 347 348 349 349 349 348 346 345 344 342 342 341 339 338 338
312 316 315 315 315 314 313 313 311 311 310 312 312 312 314 315 316 314 317 316 314 315 315 315 326 335 337 338 339 346 347 346 346 346 345 344 343 342 340 339 338 337 335 334
314 317 316 317 316 314 314 314 311 311 315 317 317 314 315 315 314 314 314 314 313 314 314 315 337 339 340 343 346 344 345 345 345 344 343 342 341 340 338 336 335 335 334 334
315 316 315 314 313 314 316 313 314 315 315 316 317 315 313 314 315 314 313 313 315 316 316 317 334 340 339 341 343 343 344 343 343 342 341 339 338 337 336 335 336 334 333 333
314 315 316 315 314 318 314 315 315 315 314 315 318 317 317 316 316 316 318 315 320 323 321 331 334 335 329 334 341 341 342 341 340 339 338 336 336 336 336 335 334 333 332 334
314 315 316 316 312 315 315 316 314 314 313 315 315 314 314 314 315 317 318 316 318 319 326 329 333 330 328 328 339 338 338 337 336 335 335 335 334 332 333 333 332 333 333 334
314 315 315 314 317 318 319 315 313 311 316 314 312 312 312 312 316 316 314 314 316 317 324 329 333 333 327 328 336 335 333 333 333 333 334 334 333 333 333 332 333 332 332 333
317 315 316 316 316 316 316 313 313 314 315 311 312 312 311 311 311 311 312 313 314 316 326 329 331 331 330 334 334 333 332 331 332 334 334 333 332 333 333 333 332 331 332 333
318 317 315 314 319 316 313 313 315 313 312 312 312 312 312 311 311 311 311 312 314 316 320 330 331 331 333 337 333 332 331 332 333 333 332 333 333 334 333 333 332 332 333 331
311 314 316 316 313 315 313 313 312 312 313 311 312 311 310 311 311 311 311 313 313 315 321 331 331 332 335 338 333 333 333 333 333 332 332 332 334 332 331 332 332 333 333 330
312 312 316 316 316 315 314 313 311 310 309 309 309 309 310 311 311 312 314 315 315 317 328 330 331 335 335 336 334 333 333 333 333 332 332 332 331 332 332 331 332 332 332 331
311 313 315 316 315 312 313 310 310 309 308 308 308 309 310 311 314 317 319 319 318 319 323 331 330 330 333 334 334 334 334 332 334 334 333 333 333 333 332 331 332 332 332 331
313 316 317 317 314 311 310 307 307 307 308 308 309 310 311 313 314 317 322 323 321 325 331 332 331 329 330 335 334 334 333 332 333 332 333 334 333 330 329 328 328 331 332 332
Wind_Speed
6 5 5 10 9 9 11 13 12 14 13 14 12 19 18 14 16 16 20 21 19 19 21 22 27 35 27 28 31 30 32 30 26 25 24 24 27 28 29 29 27 29 30 32
6 6 7 10 11 10 11 14 12 13 10 15 13 22 18 15 16 16 14 19 21 16 11 12 24 27 24 30 34 37 33 30 28 27 25 26 27 27 29 29 32 31 29 30
6 10 13 13 11 11 11 11 12 17 15 14 10 19 23 21 16 17 19 11 9 14 17 15 14 16 23 26 32 33 32 31 31 30 29 28 27 26 25 21 23 34 31 29
5 8 10 8 9 8 7 15 15 16 14 9 4 17 16 17 20 15 16 14 10 10 9 13 13 10 17 28 33 34 34 34 34 33 33 32 26 20 32 26 26 31 29 29
7 12 11 6 7 11 8 13 17 15 15 14 14 9 15 8 15 13 13 17 18 12 10 11 11 12 20 22 30 33 31 33 35 36 38 35 30 29 28 24 23 27 25 25
13 15 2 3 6 9 11 6 11 5 5 12 17 12 20 13 17 17 14 18 19 17 16 12 12 19 19 25 27 30 35 38 38 38 37 36 33 28 22 20 28 27 25 24
5 5 5 4 1 4 4 6 4 4 2 9 13 13 19 14 18 15 13 13 18 15 16 19 17 14 14 18 24 27 28 34 36 39 39 39 35 28 26 27 27 27 25 24
2 7 7 3 6 7 3 1 4 4 6 13 15 10 8 11 8 18 21 20 19 17 16 14 12 20 17 27 32 31 28 32 36 38 36 36 34 33 24 27 28 28 27 25
5 5 11 14 12 11 4 5 13 11 13 7 5 8 14 13 17 19 21 23 25 24 25 23 13 7 8 15 27 35 32 30 33 32 32 33 33 32 23 27 29 25 24 22
6 13 6 11 11 10 8 5 7 3 4 5 4 14 4 12 17 18 20 22 26 25 25 18 6 5 6 9 10 22 32 32 30 27 26 28 25 26 27 31 27 23 23 23
7 2 7 8 3 12 11 3 3 2 4 2 4 2 2 5 7 12 15 19 23 26 21 18 6 4 2 7 15 20 27 28 26 24 23 23 26 27 33 30 26 27 25 24
4 3 5 15 16 9 4 5 3 2 3 3 6 7 4 5 1 6 11 15 21 21 20 16 24 4 4 5 9 25 26 27 28 25 24 24 27 28 33 30 27 26 26 25
2 3 6 6 6 3 2 5 6 6 12 14 9 6 10 5 0 7 10 11 18 16 20 18 23 13 6 5 7 17 27 26 28 26 24 25 25 27 30 30 30 31 28 26
4 6 7 8 14 13 18 18 19 12 4 13 10 14 19 5 1 5 9 13 12 15 21 17 20 11 15 11 16 19 23 29 28 28 28 26 31 32 34 29 33 30 25 23
5 4 8 14 18 19 20 22 21 18 14 15 19 17 1 5 7 2 3 13 11 19 30 22 25 14 9 9 11 22 26 28 31 27 28 28 30 31 31 27 27 23 22 20
3 4 6 20 22 21 22 21 19 18 8 14 16 13 6 8 9 7 11 19 17 23 27 27 7 6 6 10 20 27 26 28 31 31 26 28 31 28 27 26 23 22 20 22
6 3 3 7 12 15 10 9 6 9 10 10 10 10 8 11 5 8 13 19 16 20 18 11 10 7 4 7 11 24 29 31 30 30 27 28 29 27 24 22 21 24 23 21
7 5 2 5 10 3 2 15 15 10 11 13 10 14 15 12 14 14 16 11 16 21 17 7 8 8 9 9 21 30 32 32 30 29 26 28 28 26 23 23 26 23 22 22
5 4 2 3 2 12 6 5 6 6 12 4 10 14 17 19 18 15 11 17 17 22 9 4 8 5 12 17 21 31 31 32 29 27 26 28 29 25 24 25 23 22 23 21
8 4 3 1 3 4 1 5 6 7 4 8 11 14 16 15 9 12 22 25 23 21 15 8 9 12 15 25 13 30 26 26 25 26 29 28 28 28 25 25 24 21 20 21
3 3 5 7 6 6 4 8 3 2 3 14 12 15 16 12 12 20 23 25 22 20 12 15 7 9 15 30 24 21 23 19 25 32 31 32 33 29 30 26 22 20 21 24
3 2 3 2 3 6 4 3 2 6 15 8 10 16 13 16 17 18 23 24 22 22 20 9 5 9 22 25 24 16 17 29 33 34 32 30 31 27 28 26 22 22 24 25
4 3 3 5 5 1 5 5 7 8 12 12 13 12 16 17 17 19 20 22 21 21 15 8 5 4 15 13 22 20 27 32 33 30 29 30 27 27 27 24 23 22 25 24
5 8 4 9 6 8 4 3 4 10 13 15 12 15 15 18 19 20 19 17 18 16 9 11 10 4 5 6 29 29 26 36 31 27 26 28 26 23 23 22 22 24 26 22
11 9 4 8 7 7 1 6 10 14 14 14 14 15 17 18 17 16 15 15 14 14 13 4 3 5 12 11 28 24 33 34 29 26 24 24 24 23 19 17 14 17 22 25
2 2 3 3 1 4 7 12 13 14 14 14 15 17 16 15 16 15 15 12 9 11 5 2 11 18 30 24 25 28 35 35 29 26 23 24 24 24 21 20 15 11 13 20
Wind_Direction
288 5 276 257 264 264 288 293 293 306 324 322 299 291 294 299 298 273 241 241 241 243 243 262 258 252 256 232 220 205 188 189 179 183 197 219 227 232 235 240 245 244 241 229
311 249 257 330 328 329 323 315 309 309 321 305 311 296 297 294 291 295 283 253 237 234 233 242 250 249 251 242 222 208 203 191 197 201 207 222 231 236 243 255 263 246 233 226
324 309 332 325 316 317 296 294 302 291 290 269 294 286 291 291 278 284 288 273 272 245 247 244 246 250 240 229 206 196 194 203 204 211 217 227 234 245 248 239 262 239 224 220
289 269 284 296 302 344 344 336 324 325 332 299 273 281 278 292 295 297 293 293 266 255 267 255 246 233 206 202 191 196 202 208 211 215 219 226 222 226 244 250 260 220 211 207
263 288 284 303 16 357 303 319 310 305 296 303 292 277 281 288 281 282 286 285 289 272 241 246 242 222 225 202 208 207 209 208 213 216 221 224 227 235 248 243 220 194 190 193
239 265 357 57 7 322 333 325 315 310 296 271 272 268 277 268 276 281 280 286 290 292 276 238 238 253 227 215 205 201 203 209 215 221 224 225 221 222 227 222 188 179 181 183
309 339 119 97 320 277 319 359 315 310 273 263 266 256 251 266 262 283 295 295 289 277 279 287 255 240 241 232 228 226 224 221 220 222 224 223 220 219 217 200 180 177 176 185
9 326 322 156 200 238 210 199 267 282 277 283 303 282 264 288 257 17 0 330 308 293 277 269 256 241 236 233 238 235 223 224 225 224 220 221 217 214 214 209 194 189 188 191
313 289 329 318 323 318 288 227 248 283 274 275 245 273 281 5 5 1 356 343 334 322 310 272 251 225 208 215 216 214 219 216 216 213 208 209 210 208 210 193 196 193 195 196
334 310 303 317 333 302 259 254 305 287 269 265 295 300 301 359 349 353 349 339 329 319 318 275 236 267 268 257 231 228 222 201 188 187 193 195 194 202 199 190 183 187 184 186
350 252 305 322 261 290 308 345 35 154 285 294 298 277 329 24 346 343 327 333 323 308 307 319 238 215 186 333 260 202 186 174 175 181 186 189 191 190 177 178 176 177 178 180
46 275 285 285 284 294 78 126 139 277 272 222 263 269 229 153 4 278 324 333 307 299 309 331 318 248 266 286 176 163 159 157 165 168 174 185 194 185 174 172 172 175 175 176
104 319 311 294 296 37 122 254 245 232 268 271 273 269 218 177 16 329 309 319 298 314 305 312 320 319 252 239 222 149 143 147 162 165 172 177 170 153 151 162 168 161 154 151
216 191 218 256 272 285 286 281 279 234 240 263 262 282 276 194 22 286 352 317 300 310 298 306 299 281 273 234 213 157 132 144 142 148 140 131 130 131 138 138 142 140 152 157
131 258 263 266 271 278 281 291 282 280 266 276 272 277 305 206 192 174 343 288 306 294 279 277 253 229 239 221 196 145 137 137 132 126 124 129 133 137 140 142 141 140 139 142
78 275 308 283 272 271 278 280 274 286 340 335 312 311 358 335 158 207 224 266 265 257 264 272 288 259 297 205 163 147 143 134 135 134 135 135 139 138 134 133 139 146 151 149
177 222 298 278 302 310 289 286 331 341 345 342 318 301 333 329 327 250 253 249 291 305 294 317 358 319 212 174 194 139 138 133 129 128 130 133 137 137 139 143 146 146 144 134
157 164 218 278 306 258 244 40 51 5 354 334 340 346 343 334 317 304 302 311 332 321 310 18 355 3 21 254 170 130 137 134 130 133 135 137 140 142 147 148 150 151 136 139
124 131 220 265 256 273 298 21 8 4 313 352 354 340 329 328 322 292 2 344 324 314 314 37 55 36 335 297 138 134 133 134 137 138 141 144 148 150 147 146 145 140 135 133
129 166 191 326 281 268 118 279 332 321 242 29 344 320 313 317 301 290 333 323 314 314 314 343 53 64 343 277 201 130 133 139 144 146 146 145 145 149 148 152 149 146 144 138
200 230 219 250 257 269 217 259 313 11 200 334 321 301 303 295 283 298 304 302 301 305 302 318 11 41 287 251 150 140 144 145 141 138 138 142 148 157 161 154 148 144 142 141
201 228 232 230 250 269 211 318 232 296 300 290 281 291 293 290 289 295 295 293 300 305 303 319 31 25 248 234 149 147 124 128 127 135 135 136 146 147 155 148 148 150 147 143
312 159 229 210 228 167 177 208 260 292 306 308 299 302 300 291 289 285 281 285 287 291 302 330 332 212 252 235 145 125 130 124 128 131 134 137 143 148 151 149 151 153 156 147
305 297 277 302 263 265 251 296 327 301 299 301 293 294 291 286 283 283 279 276 279 295 316 356 1 289 302 239 124 133 125 132 127 127 132 141 144 146 153 156 158 162 162 156
275 290 280 260 286 328 277 321 298 301 296 296 296 289 287 284 283 290 290 267 269 283 303 327 292 248 278 156 131 127 125 129 124 126 134 145 137 142 142 145 161 180 185 180
210 206 268 290 3 246 295 311 314 302 298 297 299 299 300 302 296 290 289 289 273 275 236 301 200 226 251 146 130 127 133 134 132 131 138 138 139 143 142 135 115 156 177 183